This demonstration page uses our WeatherBlox Daily Observations layout. Learn more.

Left ArrowRight Arrow

Hourly Observations for June 11, 2020

Temp ( °F °C ) Dew Point ( °F °C ) Humidity (%) Winds ( mph kmh ) Pressure ( in mb ) Visibility ( mi km ) Precip ( " mm )
12:56 am 00:56 Clear 56 13.5 50 10.1 80 80 S 3 6 30.07 1018 10 16 0.00 0.00
1:56 am 01:56 Clear 54 12 50 10.2 89 89 Calm 30.09 1019 10 16 0.00 0.00
2:56 am 02:56 Clear 53 11.7 49 9.6 87 87 Calm 30.09 1019 10 16 0.00 0.00
3:56 am 03:56 Clear 54 12 49 9.2 83 83 Calm 30.10 1019 10 16 0.00 0.00
4:56 am 04:56 Clear 55 12.9 48 9 77 77 WNW 3 6 30.12 1020 10 16 0.00 0.00
5:56 am 05:56 Sunny 55 12.6 48 9.1 79 79 Calm 30.14 1021 10 16 0.00 0.00
6:56 am 06:56 Sunny 58 14.6 51 10.8 78 78 W 5 7 30.16 1021 10 16 0.00 0.00
7:56 am 07:56 Sunny 64 18 52 11 64 64 W 5 7 30.16 1022 10 16 0.00 0.00
8:00 am 08:00 Sunny 64 18 52 11 64 64 W 5 7 30.16 1022 10 16 0.00 0.00
8:56 am 08:56 Mostly Sunny 68 20 52 11 56 56 W 6 9 30.14 1021 10 16 0.00 0.00
9:56 am 09:56 Mostly Sunny 70 21 52 11 53 53 W 6 9 30.13 1020 10 16 0.00 0.00
10:56 am 10:56 Sunny 84 29 50 10 31 31 W 3 6 30.10 1019 10 16 0.00 0.00
11:56 am 11:56 Sunny 84 29 50 10 31 31 W 6 9 30.09 1019 10 16 0.00 0.00
12:56 pm 12:56 Mostly Sunny 83 28.1 54 12 37 37 WNW 7 11 30.18 1022 10 16 0.00 0.00
1:56 pm 13:56 Mostly Sunny 84 28.9 53 11.9 35 35 WNW 10 17 30.17 1022 10 16 0.00 0.00
2:56 pm 14:56 Sunny 85 29.3 54 12.2 35 35 NW 5 7 30.16 1021 10 16 0.00 0.00
3:56 pm 15:56 Sunny 86 29.9 56 13.6 37 37 N 7 11 30.16 1021 10 16 0.00 0.00
4:56 pm 16:56 Sunny 88 30.9 54 12.3 32 32 NNW 7 11 30.14 1021 10 16 0.00 0.00
5:56 pm 17:56 Sunny 85 29.7 56 13.4 37 37 WNW 7 11 30.15 1021 10 16 0.00 0.00
6:56 pm 18:56 Sunny 85 29.6 55 12.9 36 36 Calm 30.14 1021 10 16 0.00 0.00
7:56 pm 19:56 Sunny 83 28.2 60 15.8 47 47 ENE 5 7 30.10 1019 10 16 0.00 0.00
8:56 pm 20:56 Sunny 77 25.2 56 13.1 47 47 NNE 7 11 30.13 1020 10 16 0.00 0.00
9:56 pm 21:56 Clear 73 23 56 13.2 54 54 NNE 6 9 30.16 1021 10 16 0.00 0.00
10:56 pm 22:56 Clear 69 20.4 57 13.8 66 66 NE 3 6 30.19 1022 10 16 0.00 0.00
11:56 pm 23:56 Clear 65 18.2 57 13.9 76 76 NNE 5 7 30.21 1023 10 16 0.00 0.00

Powered by AerisWeather